Regional Weather Roundup
Issued by NWS

Home | Current Version | Previous Version | Text Only | Print | Product List | Glossary On
Versions: 1 2 3 4 5 6 7 8 9 10 11 12 13 14 15 16 17 18 19 20 21 22 23 24 25 26 27 28 29 30 31 32 33 34 35 36 37 38 39 40 41 42 43 44 45 46 47 48 49 50
000
ASUS42 KFFC 260010
RWRGA
WEATHER ROUNDUP FOR GEORGIA
NATIONAL WEATHER SERVICE PEACHTREE CITY GA
800 PM EDT SUN JUN 25 2017

NOTE: "FAIR" INDICATES FEW OR NO CLOUDS BELOW 12,000 FEET WITH NO
SIGNIFICANT WEATHER AND/OR OBSTRUCTIONS TO VISIBILITY.

* = USE WITH CAUTION. THE STATIONS MARKED WITH AN ASTERISK MAY NOT
REPORT WEATHER SUCH AS PRECIPITATION, FOG, OR THUNDER AND ARE NOT
QUALITY CONTROLLED BY NWS.

THE REMARK "TC" DENOTES TEMPERATURE READING IN DEGREES CELSIUS.

GAZ001>058-260100-
NORTH GEORGIA

CITY           SKY/WX    TMP DP  RH WIND       PRES   REMARKS
ATLANTA        CLOUDY    74  60  61 NW9       30.15R
6HR MIN TEMP:  74; 6HR MAX TEMP:  81;

ATHENS         CLOUDY    77  63  61 NW6       30.12R
6HR MIN TEMP:  77; 6HR MAX TEMP:  85;

CHAMBLEE       MOCLDY    73  58  59 NW6       30.15R
6HR MIN TEMP:  73; 6HR MAX TEMP:  82;

PEACHTREE CITY PTCLDY    74  60  61 NW8       30.15R
6HR MIN TEMP:  74; 6HR MAX TEMP:  81;

ROME           CLOUDY    76  64  66 W3        30.15R
6HR MIN TEMP:  69; 6HR MAX TEMP:  79;

WEST ATLANTA   CLOUDY    73  60  63 NW6       30.15R
6HR MIN TEMP:  73; 6HR MAX TEMP:  80;

GAINESVILLE    PTCLDY    72  61  68 W9        30.16S
6HR MIN TEMP:  72; 6HR MAX TEMP:  81;

CARTERSVILLE   CLOUDY    72  66  81 CALM      30.16R
6HR MIN TEMP:  72; 6HR MAX TEMP:  76;



CITY           SKY/WX    TMP DP  RH WIND       PRES   REMARKS
DALTON*        CLEAR     73  63  68 CALM      30.15S
LAWRENCEVILLE* CLEAR     73  59  60 W9        30.15R
MARIETTA       MOCLDY    73  59  62 NW6       30.16R
KENNESAW*      MOCLDY    72  61  68 CALM      30.14R
CANTON*        CLOUDY    72  66  83 CALM      30.18R
$$

GAZ059>098-102>109-260100-
CENTRAL GEORGIA

CITY           SKY/WX    TMP DP  RH WIND       PRES   REMARKS
AUGUSTA-BUSH   CLOUDY    86  73  65 CALM      30.05R HX  93
6HR MIN TEMP:  85; 6HR MAX TEMP:  94;

AUGUSTA-DANIEL CLOUDY    85  67  54 N7        30.07R
6HR MIN TEMP:  85; 6HR MAX TEMP:  92;

COLUMBUS       CLOUDY    80  59  48 N8        30.11S
6HR MIN TEMP:  80; 6HR MAX TEMP:  87;

MACON          CLOUDY    81  63  54 N6        30.09S
6HR MIN TEMP:  81; 6HR MAX TEMP:  88;

ROBINS AFB     CLOUDY    81  66  59 NW7       30.08R


CITY           SKY/WX    TMP DP  RH WIND       PRES   REMARKS
LAGRANGE*      CLOUDY    76  57  52 N6        30.15S
SYLVANIA*      CLOUDY    78  78 100 CALM      30.08S
MILLEDGEVILLE* CLOUDY    81  70  69 NW7       30.09S
$$

GAZ099>101-110>166-260100-
SOUTH GEORGIA

CITY           SKY/WX    TMP DP  RH WIND       PRES   REMARKS
SAVANNAH       RAIN      77  73  87 SW3       30.09R FOG
6HR MIN TEMP:  76; 6HR MAX TEMP:  90; 6HR PCP:  0.23;

VALDOSTA       CLOUDY    76  75  97 CALM      30.08S
6HR MIN TEMP:  76; 6HR MAX TEMP:  87; 6HR PCP:  0.04;

ALMA           CLOUDY    76  73  91 CALM      30.08R
6HR MIN TEMP:  74; 6HR MAX TEMP:  90; 6HR PCP:  0.15;

ST SIMONS      CLOUDY    80  73  79 N8        30.09R
6HR MIN TEMP:  79; 6HR MAX TEMP:  96; 6HR PCP:  0.02;

FT STEWART     RAIN      77  73  88 S3        30.07S FOG
ALBANY         CLOUDY    76  75  97 CALM      30.10S
HUNTER AFB     LGT RAIN  77  76  97 CALM      30.07R
MOODY AFB      CLOUDY    77  73  88 NW3       30.07S
BRUNSWICK      CLOUDY    77  73  88 N7        30.11R


CITY           SKY/WX    TMP DP  RH WIND       PRES   REMARKS
BAINBRIDGE*    MOCLDY    81  79  94 CALM      30.09R
MOULTRIE*      CLOUDY    73  72  94 CALM      30.09S
VIDALIA*       CLOUDY    79  75  89 S3        30.08S
WAYCROSS*      CLOUDY    79  79  99 NE6       30.08S
DOUGLAS*       LGT RAIN  75  73  94 SW3       30.10S
$$




USA.gov is the U.S. government's official web portal to all federal, state and local government web resources and services.